Location: Ellerstadt
(49.4644°N, 8.2615°E)
Time: 05:09:51
(UTC+00:00)

COSMOS 2428 - Pass Details

Date: 03 March 2021
Orbit: 846 x 857 km, 70.9° (Epoch: 11 April)

Event Time Altitude Azimuth Distance (km) Brightness Sun altitude
Rises 19:17:23 0° 187° (S) 3,392 5.8 -20.8°
Reaches altitude 10° 19:19:54 10° 182° (S) 2,462 5.0 -21.2°
Enters shadow 19:24:48 46° 125° (SE) 1,131 2.9 -22.0°
Exits shadow 19:32:05 - 35° (NE) 2,992 5.4 -23.1°
Sets 19:33:14 0° 33° (NNE) 3,425 5.7 -23.3°
